Weather History for Detroit Lakes, MN

Change the Weather History Date:

Saturday, October 6, 2012

  Actual Average Record
Temperature  
Mean Temperature 36 °F -  
Max Temperature 42 °F 58 °F 83 °F (1947)
Min Temperature 30 °F 35 °F 11 °F (1976)
Degree Days  
Heating Degree Days 29    
Moisture  
Dew Point 29 °F    
Average Humidity 82    
Maximum Humidity 100    
Minimum Humidity 53    
Precipitation  
Precipitation 0.00 in - - ()
Sea Level Pressure  
Sea Level Pressure 30.27 in    
Wind  
Wind Speed 11 mph (NW)    
Max Wind Speed 16 mph    
Max Gust Speed 23 mph    
Visibility 10 miles    
Events Snow    
Averages and records for this station are not official NWS values.
T = Trace of Precipitation, MM = Missing Value Source: NWS Daily Summary

Daily Weather History Graph

Daily Weather History Graph

Search for Another Location

Airport:

Trip Planner

Search our weather history database for the weather conditions in past years. The results will help you decide how hot, cold, wet, or windy it might be!

Date:

Astronomy

Oct. 06, 2012 Rise Set
Actual Time 7:29 AM CDT 6:52 PM CDT
Civil Twilight 6:59 AM CDT 7:22 PM CDT
Nautical Twilight 6:24 AM CDT 7:57 PM CDT
Astronomical Twilight 5:48 AM CDT 8:33 PM CDT
Moon 10:52 PM CDT (10/6) 1:42 PM CDT (10/6)
Length of Visible Light 12h 23m
Length of Day
11h 22m
Waning Gibbous, 65% of the Moon is Illuminated
Oct 6
Waning Gibbous
Oct 8
Last Quarter
Oct 15
New
Oct 21
First Quarter
Oct 29
Full

Hourly Weather History & Observations

Time (CDT) Temp. Windchill Dew Point Humidity Pressure Visibility Wind Dir Wind Speed Gust Speed Precip Events Conditions
12:12 AM 32.0 °F 21.6 °F 32.0 °F 100% 30.22 in 7.0 mi NNW 15.0 mph 20.7 mph N/A   Overcast
12:33 AM 32.0 °F 21.2 °F 32.0 °F 100% 30.22 in 3.0 mi NNW 16.1 mph - N/A Snow Light Snow
12:53 AM 32.0 °F 22.1 °F 32.0 °F 100% 30.23 in 7.0 mi NNW 13.8 mph 18.4 mph N/A   Overcast
1:12 AM 32.0 °F 22.1 °F 32.0 °F 100% 30.23 in 10.0 mi NNW 13.8 mph 17.3 mph N/A   Overcast
1:53 AM 32.0 °F 22.5 °F 32.0 °F 100% 30.24 in 7.0 mi NNW 12.7 mph - N/A   Overcast
2:12 AM 32.0 °F 21.6 °F 32.0 °F 100% 30.23 in 10.0 mi NNW 15.0 mph 20.7 mph N/A   Overcast
2:33 AM 32.0 °F 21.2 °F 32.0 °F 100% 30.24 in 10.0 mi North 16.1 mph 21.9 mph N/A   Overcast
2:53 AM 32.0 °F 22.1 °F 32.0 °F 100% 30.24 in 10.0 mi North 13.8 mph 19.6 mph N/A   Overcast
3:12 AM 32.0 °F 23.6 °F 32.0 °F 100% 30.24 in 10.0 mi North 10.4 mph 23.0 mph N/A   Overcast
3:33 AM 32.0 °F 22.1 °F 32.0 °F 100% 30.24 in 10.0 mi North 13.8 mph 19.6 mph N/A   Overcast
3:52 AM 32.0 °F 22.1 °F 30.2 °F 93% 30.25 in 10.0 mi North 13.8 mph 20.7 mph N/A   Overcast
4:33 AM 32.0 °F 23.6 °F 30.2 °F 93% 30.26 in 10.0 mi North 10.4 mph 16.1 mph N/A   Overcast
4:53 AM 32.0 °F 24.8 °F 30.2 °F 93% 30.26 in 10.0 mi North 8.1 mph - N/A   Overcast
5:12 AM 32.0 °F 22.1 °F 30.2 °F 93% 30.26 in 10.0 mi NNW 13.8 mph 18.4 mph N/A   Overcast
5:33 AM 32.0 °F 22.1 °F 30.2 °F 93% 30.27 in 10.0 mi NNW 13.8 mph - N/A   Overcast
5:52 AM 32.0 °F 23.6 °F 30.2 °F 93% 30.27 in 10.0 mi NNW 10.4 mph - N/A   Overcast
6:13 AM 32.0 °F 23.0 °F 30.2 °F 93% 30.28 in 10.0 mi NNW 11.5 mph - N/A   Overcast
6:33 AM 32.0 °F 23.6 °F 30.2 °F 93% 30.28 in 10.0 mi North 10.4 mph 18.4 mph N/A   Overcast
6:52 AM 32.0 °F 23.0 °F 30.2 °F 93% 30.29 in 10.0 mi NNW 11.5 mph - N/A   Overcast
7:13 AM 32.0 °F 22.5 °F 30.2 °F 93% 30.29 in 10.0 mi NNW 12.7 mph 16.1 mph N/A   Overcast
7:33 AM 30.2 °F 20.8 °F 30.2 °F 100% 30.30 in 10.0 mi NNW 11.5 mph - N/A   Overcast
7:52 AM 30.2 °F 20.2 °F 28.4 °F 93% 30.31 in 10.0 mi NNW 12.7 mph - N/A   Overcast
8:13 AM 30.2 °F 21.9 °F 30.2 °F 100% 30.32 in 10.0 mi North 9.2 mph - N/A   Overcast
8:33 AM 30.2 °F 24.3 °F 28.4 °F 93% 30.32 in 10.0 mi North 5.8 mph - N/A   Overcast
8:52 AM 30.2 °F 22.6 °F 28.4 °F 93% 30.32 in 10.0 mi North 8.1 mph - N/A   Overcast
9:13 AM 30.2 °F 22.6 °F 30.2 °F 100% 30.33 in 10.0 mi NNW 8.1 mph - N/A   Overcast
9:33 AM 32.0 °F 23.6 °F 30.2 °F 93% 30.34 in 10.0 mi NNW 10.4 mph - N/A   Overcast
9:52 AM 32.0 °F 24.2 °F 30.2 °F 93% 30.34 in 10.0 mi North 9.2 mph - N/A   Overcast
10:13 AM 32.0 °F 24.8 °F 30.2 °F 93% 30.34 in 10.0 mi NW 8.1 mph - N/A   Overcast
10:33 AM 32.0 °F 23.6 °F 32.0 °F 100% 30.34 in 10.0 mi NW 10.4 mph - N/A   Mostly Cloudy
10:53 AM 33.8 °F 27.0 °F 30.2 °F 87% 30.34 in 10.0 mi NW 8.1 mph - N/A   Mostly Cloudy
11:13 AM 35.6 °F 28.0 °F 32.0 °F 87% 30.34 in 10.0 mi NNW 10.4 mph - N/A   Scattered Clouds
11:33 AM 35.6 °F 28.0 °F 30.2 °F 81% 30.34 in 10.0 mi North 10.4 mph - N/A   Scattered Clouds
11:53 AM 37.4 °F 29.3 °F 30.2 °F 75% 30.34 in 10.0 mi North 12.7 mph 18.4 mph N/A   Clear
12:13 PM 37.4 °F 30.3 °F 30.2 °F 75% 30.34 in 10.0 mi NW 10.4 mph 17.3 mph N/A   Scattered Clouds
12:33 PM 37.4 °F 31.4 °F 26.6 °F 65% 30.34 in 10.0 mi North 8.1 mph - N/A   Mostly Cloudy
12:53 PM 37.4 °F 32.1 °F 28.4 °F 70% 30.33 in 10.0 mi North 6.9 mph 16.1 mph N/A   Mostly Cloudy
1:13 PM 37.4 °F 30.3 °F 28.4 °F 70% 30.33 in 10.0 mi NNW 10.4 mph - N/A   Mostly Cloudy
1:33 PM 37.4 °F 32.1 °F 28.4 °F 70% 30.32 in 10.0 mi NNW 6.9 mph - N/A   Mostly Cloudy
1:52 PM 39.2 °F 34.2 °F 28.4 °F 65% 30.31 in 10.0 mi NNW 6.9 mph - N/A   Mostly Cloudy
2:13 PM 41.0 °F 36.4 °F 28.4 °F 61% 30.30 in 10.0 mi NW 6.9 mph - N/A   Mostly Cloudy
2:33 PM 39.2 °F 34.2 °F 28.4 °F 65% 30.30 in 10.0 mi NNW 6.9 mph - N/A   Mostly Cloudy
2:52 PM 41.0 °F 34.7 °F 26.6 °F 57% 30.29 in 10.0 mi NW 10.4 mph - N/A   Mostly Cloudy
3:13 PM 41.0 °F 34.3 °F 26.6 °F 57% 30.29 in 10.0 mi NW 11.5 mph 17.3 mph N/A   Mostly Cloudy
3:33 PM 41.0 °F 35.8 °F 28.4 °F 61% 30.28 in 10.0 mi NW 8.1 mph - N/A   Scattered Clouds
3:52 PM 42.8 °F 36.6 °F 28.4 °F 57% 30.27 in 10.0 mi NNW 11.5 mph - N/A   Mostly Cloudy
4:13 PM 41.0 °F 34.7 °F 26.6 °F 57% 30.27 in 10.0 mi WNW 10.4 mph - N/A   Mostly Cloudy
4:33 PM 41.0 °F 35.2 °F 26.6 °F 57% 30.27 in 10.0 mi NNW 9.2 mph - N/A   Mostly Cloudy
4:52 PM 42.8 °F 37.5 °F 26.6 °F 53% 30.26 in 10.0 mi West 9.2 mph - N/A   Mostly Cloudy
5:13 PM 41.0 °F 35.2 °F 26.6 °F 57% 30.26 in 10.0 mi NW 9.2 mph - N/A   Scattered Clouds
5:33 PM 41.0 °F 37.1 °F 26.6 °F 57% 30.25 in 10.0 mi NW 5.8 mph - N/A   Clear
5:52 PM 41.0 °F 37.1 °F 26.6 °F 57% 30.25 in 10.0 mi WNW 5.8 mph - N/A   Scattered Clouds
6:13 PM 39.2 °F 35.0 °F 28.4 °F 65% 30.24 in 10.0 mi NW 5.8 mph - N/A   Scattered Clouds
6:33 PM 39.2 °F 35.9 °F 28.4 °F 65% 30.24 in 10.0 mi WNW 4.6 mph - N/A   Clear
6:52 PM 37.4 °F 33.8 °F 28.4 °F 70% 30.24 in 10.0 mi WNW 4.6 mph - N/A   Clear
7:13 PM 37.4 °F - 28.4 °F 70% 30.24 in 10.0 mi Calm Calm - N/A   Clear
7:33 PM 37.4 °F 34.9 °F 28.4 °F 70% 30.24 in 10.0 mi WSW 3.5 mph - N/A   Clear
7:52 PM 35.6 °F - 28.4 °F 75% 30.23 in 10.0 mi Calm Calm - N/A   Clear
8:13 PM 35.6 °F - 28.4 °F 75% 30.23 in 10.0 mi Calm Calm - N/A   Clear
8:33 PM 35.6 °F 32.8 °F 30.2 °F 81% 30.23 in 10.0 mi SW 3.5 mph - N/A   Clear
8:52 PM 35.6 °F 31.7 °F 30.2 °F 81% 30.23 in 10.0 mi SW 4.6 mph - N/A   Clear
9:13 PM 35.6 °F 31.7 °F 30.2 °F 81% 30.22 in 10.0 mi SW 4.6 mph - N/A   Clear
9:33 PM 33.8 °F 28.6 °F 28.4 °F 81% 30.21 in 10.0 mi SW 5.8 mph - N/A   Clear
9:52 PM 33.8 °F 28.6 °F 28.4 °F 81% 30.21 in 10.0 mi SW 5.8 mph - N/A   Clear
10:13 PM 33.8 °F 29.6 °F 28.4 °F 81% 30.20 in 10.0 mi SW 4.6 mph - N/A   Clear
10:33 PM 33.8 °F 28.6 °F 28.4 °F 81% 30.20 in 10.0 mi SW 5.8 mph - N/A   Clear
10:52 PM 33.8 °F 27.7 °F 30.2 °F 87% 30.20 in 10.0 mi SW 6.9 mph - N/A   Clear
11:13 PM 33.8 °F 28.6 °F 30.2 °F 87% 30.19 in 10.0 mi SW 5.8 mph - N/A   Clear
11:33 PM 33.8 °F 28.6 °F 30.2 °F 87% 30.18 in 10.0 mi SW 5.8 mph - N/A   Clear
11:52 PM 33.8 °F 27.7 °F 30.2 °F 87% 30.17 in 10.0 mi SW 6.9 mph - N/A   Clear